Location: Ajisawe
(8.4333°N, 4.3833°E)
Time: 20:15:17
(UTC+00:00)

Tiros 1 - Visible Passes

Search period start: 17 April 2021 00:00
Search period end: 27 April 2021 00:00
Orbit: 630 x 663 km, 48.4° (Epoch: 17 April)

Date Brightness Start Highest point End Pass type
(mag) Time Alt. Az. Time Alt. Az. Time Alt. Az.
17 Apr 8.5 18:49:34 10° WNW 18:53:50 36° SW 18:58:08 10° SSE visible
18 Apr 9.9 19:18:28 10° WSW 19:19:44 11° SW 19:20:59 10° SW visible
20 Apr 9.9 18:27:30 10° WSW 18:29:31 13° SW 18:31:31 10° SSW visible
21 Apr 9.3 05:00:37 10° S 05:04:25 24° SE 05:08:10 10° ENE visible
23 Apr 9.3 04:10:37 10° S 04:14:12 21° SE 04:17:45 10° E visible
24 Apr 7.4 04:35:36 12° SSW 04:40:04 69° SE 04:44:45 10° NE visible
25 Apr 9.3 03:23:33 18° SE 03:23:59 19° SE 03:27:16 10° E visible
25 Apr 8.0 05:01:38 10° WSW 05:05:58 35° NW 05:10:17 10° NNE visible
26 Apr 7.5 03:49:07 53° S 03:49:50 60° SE 03:54:30 10° NE visible
